Regional Weather Roundup
Issued by NWS Midland/Odessa, TX

Skip options and go directly to product.
Home | Oldest Version | Previous Version | Current Version | All | Text Only | Save Text | Print | Product List | Glossary On

Skip product version selection by date and time.   
914
ASUS44 KMAF 010510
RWRMAF
MIDLAND AREA WEATHER ROUNDUP
NATIONAL WEATHER SERVICE MIDLAND TX
1200 AM CDT FRI AUG 01 2014

...IN SOUTHWEST TEXAS AND SOUTHEAST NEW MEXICO...

CITY           SKY/WX    TMP DP  RH WIND       PRES   REMARKS
ALPINE         PTCLDY    70  59  67 N3        30.26S
ANDREWS        FAIR      74  59  59 E8        30.15R
ARTESIA        CLOUDY    72  66  83 CALM      30.17S
BIG SPRING     CLEAR     76  60  57 NE10      30.15R
CARLSBAD       CLOUDY    76  67  73 N5        30.15R
DRYDEN           N/A     87  63  44 N8        30.03R
FORT STOCKTON  MOCLDY    78  57  48 NE5       30.13R
GUAD PASS        N/A     67  58  72 MISG        N/A
HOBBS          MOCLDY    73  54  49 CALM      30.19R
MARFA          PTCLDY    70  59  68 NE7       30.24S
MIDLAND AIRPK  CLEAR     76  60  56 E5        30.14R
MIDLAND INTL   CLEAR     76  59  55 E9        30.13R
ODESSA         CLEAR     76  58  53 E10       30.14R
PECOS          CLOUDY    80  57  45 E6        30.10R
PRESIDIO       FAIR      85  61  44 NE12G20   30.04S
SEMINOLE       CLEAR     73  55  51 E7        30.17S
SNYDER         CLEAR     72  62  71 E9        30.15R
WINK           MOCLDY    79  58  48 SE5       30.10R
$$
...OTHER STATIONS IN TEXAS...

CITY           SKY/WX    TMP DP  RH WIND       PRES   REMARKS
ABILENE        PTCLDY    74  63  68 NE5       30.11R
AMARILLO       MOCLDY    68  56  65 E5        30.22R
AUSTIN         MOCLDY    81  66  60 N16       30.01R
BROWNSVILLE    PTCLDY    82  76  81 SE8       29.95R
CORPUS CHRISTI MOCLDY    82  76  81 S14       29.93S
DALLAS FTW     CLOUDY    72  65  78 N9        30.04R
DEL RIO        CLOUDY    84  71  65 NE7       29.94R
EL PASO        CLOUDY    78  58  49 SE8       30.13R
HOUSTON INT    NOT AVBL
LUBBOCK        MOCLDY    68  52  56 E7        30.19R
SAN ANGELO     CLEAR     75  62  64 NE10      30.09R
SAN ANTONIO    MOCLDY    84  71  65 E8        29.99R
WACO           PTCLDY    73  64  73 N9        30.02R
WICHITA FALLS  NOT AVBL
$$
...OTHER LOCATIONS IN NEW MEXICO...

CITY           SKY/WX    TMP DP  RH WIND       PRES   REMARKS
ALAMAGORDO     MOCLDY    79  59  50 S7        30.15R
ALBUQUERQUE    CLOUDY    66  53  63 E17       30.27R
CANNON AFB     CLOUDY    68  54  60 E8        30.25R
CLOVIS         NOT AVBL
HOLLOMAN AFB   MOCLDY    79  61  53 S8        30.13R
ROSWELL        CLOUDY    74  63  68 CALM      30.17S
RUIDOSO        CLOUDY    63  57  82 SE9       30.37F
SANTA FE       CLOUDY    58  54  86 SW8       30.33R
TRUTH OR CONSE LGT RAIN  64  62  93 E12       30.25R
TUCUMCARI      CLOUDY    73  54  51 E7        30.22S
$$

USA.gov is the U.S. government's official web portal to all federal, state and local government web resources and services.